Skip Page Navigation
NASA JPL Caltech
NASA Logo - Jet Propulsion Laboratory + View the NASA Portal
+ Center for Near-Earth Object Studies
JPL Home Earth Solar System Stars & Galaxies Technology
JPL Solar System Dynamics
BODIES ORBITS EPHEMERIDES TOOLS PHYSICAL DATA DISCOVERY FAQ SITE MAP
JPL Small-Body Database Browser
Search: [ help ]  
452877 (2006 SC408)
Classification: Main-belt Asteroid          SPK-ID: 2452877
Ephemeris | Orbit Diagram | Orbital Elements | Mission Design | Physical Parameters | Discovery Circumstances ]

[ show orbit diagram ]
Orbital Elements at Epoch 2459000.5 (2020-May-31.0) TDB
Reference: JPL 13 (heliocentric ecliptic J2000)
 Element Value Uncertainty (1-sigma)   Units 
e .1921325136581463 6.7776e-08  
a 2.692665251379568 2.885e-08 au
q 2.175316708192068 1.8628e-07 au
i 13.51456737339934 9.9064e-06 deg
node 212.8081784513129 2.9089e-05 deg
peri 123.0129811208635 4.2609e-05 deg
M 72.37812655562966 2.5121e-05 deg
tp 2458676.028308764649
(2019-Jul-11.52830876)
0.00011355 TDB
period 1613.882735068401
4.42
2.5937e-05
7.101e-08
d
yr
n .2230645338583055 3.5849e-09 deg/d
Q 3.210013794567069 3.4392e-08 au
  Orbit Determination Parameters
   # obs. used (total)      147  
   data-arc span      4777 days (13.08 yr)  
   first obs. used      2006-09-27  
   last obs. used      2019-10-26  
   planetary ephem.      DE431  
   SB-pert. ephem.      SB431-N16  
   condition code      0  
   norm. resid. RMS      .4615  
   source      ORB  
   producer      Otto Matic  
   solution date      2020-Nov-12 06:36:00  

Additional Information
 Earth MOID = 1.20034 au 
 Jupiter MOID = 2.37283 au 
 T_jup = 3.305 
[ show covariance matrix ]

Ephemeris | Orbit Diagram | Orbital Elements | Mission Design | Physical Parameters | Discovery Circumstances ]

Physical Parameter Table
Parameter Symbol Value Units Sigma Reference Notes
absolute magnitude H 17.5   n/a MPO495259  
diameter diameter 1.574 km 0.599 urn:nasa:pds:neowise_diameters_albedos::2.0[mainbelt] (http://adsabs.harvard.edu/abs/2011ApJ...741...68M)  
geometric albedo albedo 0.071   0.051 urn:nasa:pds:neowise_diameters_albedos::2.0[mainbelt] (http://adsabs.harvard.edu/abs/2011ApJ...741...68M)  

452877 (2006 SC408)          Discovered 2006-Sep-27 by Mt. Lemmon Survey at Mount Lemmon
Reference: Last Updated: 2016-01-04
Ephemeris | Orbit Diagram | Orbital Elements | Mission Design | Physical Parameters | Discovery Circumstances ]
ABOUT SSD CREDITS/AWARDS PRIVACY/COPYRIGHT GLOSSARY LINKS
FirstGov 2020-Nov-23 18:09 UT
(server date/time)  
NASA Home Page
Site Manager:   Ryan S. Park
Webmaster  Alan B. Chamberlin